DRAUGEN current weather conditions

sailwx.info

Wind from 150 at 23 knots

Air temperature 13.0° C
Dewpoint 10.0° C

Last reported at 2014-Oct-01 05:20 UTC.
Time now 2014-Oct-01 06:03 UTC

Location: N 64°22' E 007°47'.
View on Google Maps.

See reports from other nearby stations

  
Tides and Currents Weather Stations Pressure Air Temp Water Temp Dewpoint Dewpoint Depression Visibility Wind Speed Wind Dir Waves Ship Positions
date/time (UTC)wind fromknots sea level pressurealtimeterstation pressurevisibilityair tempwater tempwave heightnotes
2014-Oct-01 05:20 150 23 13.0
2014-Oct-01 04:50 150 23 13.0
2014-Oct-01 04:20 150 22 13.0
2014-Oct-01 03:50 160 20 13.0
2014-Oct-01 03:20 150 19 13.0
2014-Oct-01 02:50 160 19 13.0
2014-Oct-01 02:20 170 18 13.0
2014-Oct-01 01:50 180 19 13.0
2014-Oct-01 01:20 180 19 14.0
2014-Oct-01 00:50 170 20 14.0
2014-Oct-01 00:20 170 22 14.0
2014-Sep-30 23:50 170 22 14.0
2014-Sep-30 23:20 160 22 14.0
2014-Sep-30 22:50 170 22 14.0
2014-Sep-30 22:20 160 19 13.0
2014-Sep-30 21:50 150 19 13.0
2014-Sep-30 21:20 190 20 14.0
2014-Sep-30 20:50 170 20 13.0
2014-Sep-30 20:20 150 22 13.0
2014-Sep-30 19:50 150 22 13.0
2014-Sep-30 19:20 170 20 13.0
2014-Sep-30 18:50 150 20 13.0
2014-Sep-30 18:20 140 20 12.0
2014-Sep-30 17:50 150 18 12.0
2014-Sep-30 17:20 140 17 12.0
2014-Sep-30 16:50 150 16 11.0
2014-Sep-30 16:20 150 15 11.0
2014-Sep-30 15:50 160 17 11.0
2014-Sep-30 15:10 150 19 5.412.0 Showers in the vicinity.
2014-Sep-30 14:50 140 18 11.0
2014-Sep-30 14:20 150 16 11.0
2014-Sep-30 13:50 150 14 11.0
2014-Sep-30 13:20 160 14 11.0
2014-Sep-30 12:50 150 16 11.0
2014-Sep-30 12:10 150 16 5.411.0
2014-Sep-30 11:50 140 16 10.0
2014-Sep-30 11:20 150 19 10.0
2014-Sep-30 10:50 140 20 10.0
2014-Sep-30 10:20 140 20 10.0
2014-Sep-30 09:50 130 20 10.0
2014-Sep-30 09:10 130 20 10.0
2014-Sep-30 08:50 130 22 10.0
2014-Sep-30 08:20 130 20 10.0
2014-Sep-30 07:50 130 20 10.0
2014-Sep-30 07:20 130 22 10.0
2014-Sep-30 06:50 130 22 10.0
2014-Sep-30 06:10 120 20 10.0
2014-Sep-30 05:50 130 19 10.0
2014-Sep-30 05:20 130 17 10.0
2014-Sep-30 04:50 120 15 10.0
2014-Sep-30 04:20 120 13 10.0
2014-Sep-30 03:50 130 12 10.0
2014-Sep-30 03:20 130 10 10.0
2014-Sep-30 02:50 130 8 9.0
2014-Sep-30 02:20 140 8 10.0
2014-Sep-30 01:50 140 6 9.0
2014-Sep-30 01:20 140 5 9.0
2014-Sep-30 00:50 150 4 9.0
2014-Sep-29 23:50 220 5 9.0
2014-Sep-29 23:20 230 5 9.0
2014-Sep-29 22:50 230 6 9.0
2014-Sep-29 22:20 240 8 10.0
2014-Sep-29 21:50 240 7 10.0
2014-Sep-29 21:20 260 7 10.0
2014-Sep-29 20:50 260 9 10.0
2014-Sep-29 20:20 270 10 10.0
2014-Sep-29 19:50 300 9 11.0
2014-Sep-29 19:20 280 9 10.0
2014-Sep-29 18:50 280 9 11.0
2014-Sep-29 18:20 290 11 11.0
2014-Sep-29 17:50 290 9 10.0
2014-Sep-29 17:20 310 10 10.0
2014-Sep-29 16:50 300 16 10.0
2014-Sep-29 16:20 300 16 11.0
2014-Sep-29 15:50 280 12 11.0
2014-Sep-29 15:10 290 20 5.410.0 Showers in the vicinity.
2014-Sep-29 14:50 290 19 11.0
2014-Sep-29 14:20 290 23 11.0
2014-Sep-29 13:50 290 23 11.0
2014-Sep-29 13:20 280 27 11.0
2014-Sep-29 12:50 280 27 11.0
2014-Sep-29 12:10 280 29 5.410.0 Showers in the vicinity.
2014-Sep-29 11:50 280 27 10.0
2014-Sep-29 11:20 280 31 11.0
2014-Sep-29 10:50 280 33 10.0
2014-Sep-29 10:20 280 36 11.0
2014-Sep-29 09:50 280 34 11.0
2014-Sep-29 09:10 270 36 5.410.0 Showers in the vicinity.
2014-Sep-29 08:50 270 35 10.0
2014-Sep-29 08:20 270 40 10.0
2014-Sep-29 07:50 270 38 10.0
2014-Sep-29 07:20 260 42 10.0
2014-Sep-29 06:50 270 42 10.0
2014-Sep-29 06:20 260 39 5.410.0 Showers in the vicinity.